UAL1354 KLAX-KSFO

Flight info

Callsign UAL1354
Flight time 0h 52m
Altitude 34000
Route SUMMR2 STOKD SERFR SERFR4
Aircraft A320/M-SDE3FGHIRWY/LB1

Departure

Time 2026-04-22 10:41
Airport Los Angeles International Airport (KLAX)

Arrival

Time 2026-04-22 11:33
Airport San Francisco International Airport (KSFO)
Time Latitude Longitude Altitude Speed Heading
2026-04-22 10:12 33.94103 -118.39418 126 ft 0 kts 359°
2026-04-22 10:33 33.94090 -118.39418 123 ft 3 kts 358°
2026-04-22 10:33 33.94069 -118.39417 124 ft 3 kts 358°
2026-04-22 10:33 33.94049 -118.39416 124 ft 3 kts 360°
2026-04-22 10:33 33.94033 -118.39417 124 ft 1 kts 16°
2026-04-22 10:34 33.94025 -118.39420 123 ft 1 kts 51°
2026-04-22 10:34 33.94020 -118.39428 122 ft 1 kts 78°
2026-04-22 10:34 33.94019 -118.39437 123 ft 1 kts 82°
2026-04-22 10:34 33.94018 -118.39440 122 ft 0 kts 82°
2026-04-22 10:36 33.94019 -118.39430 121 ft 2 kts 82°
2026-04-22 10:37 33.94023 -118.39402 120 ft 5 kts 82°
2026-04-22 10:37 33.94037 -118.39250 124 ft 16 kts 83°
2026-04-22 10:37 33.94054 -118.39093 123 ft 20 kts 82°
2026-04-22 10:38 33.93990 -118.38974 124 ft 18 kts 113°
2026-04-22 10:38 33.93999 -118.38821 122 ft 20 kts 83°
2026-04-22 10:38 33.94017 -118.38646 124 ft 22 kts 83°
2026-04-22 10:38 33.94033 -118.38483 126 ft 14 kts 83°
2026-04-22 10:39 33.94045 -118.38366 123 ft 4 kts 86°
2026-04-22 10:39 33.94026 -118.38333 122 ft 6 kts 153°
2026-04-22 10:39 33.93978 -118.38324 124 ft 8 kts 177°
2026-04-22 10:39 33.93949 -118.38375 126 ft 9 kts 264°
2026-04-22 10:40 33.93947 -118.38400 126 ft 1 kts 263°
2026-04-22 10:40 33.93946 -118.38408 126 ft 7 kts 263°
2026-04-22 10:40 33.93914 -118.38746 126 ft 76 kts 264°
2026-04-22 10:40 33.93821 -118.39624 123 ft 132 kts 263°
2026-04-22 10:41 33.93689 -118.40901 182 ft 169 kts 263°
2026-04-22 10:41 33.93538 -118.42287 846 ft 166 kts 263°
2026-04-22 10:41 33.93404 -118.43663 1576 ft 165 kts 264°
2026-04-22 10:41 33.93275 -118.45048 2116 ft 172 kts 263°
2026-04-22 10:42 33.93130 -118.46570 2371 ft 194 kts 264°
2026-04-22 10:42 33.92979 -118.48282 2682 ft 215 kts 264°
2026-04-22 10:42 33.92821 -118.50145 3017 ft 239 kts 264°
2026-04-22 10:42 33.92649 -118.52222 3608 ft 255 kts 264°
2026-04-22 10:43 33.92473 -118.54369 4489 ft 260 kts 263°
2026-04-22 10:43 33.92292 -118.56547 5416 ft 262 kts 263°
2026-04-22 10:43 33.92110 -118.58735 6367 ft 263 kts 263°
2026-04-22 10:43 33.91928 -118.60929 7271 ft 264 kts 262°
2026-04-22 10:44 33.91769 -118.63143 8132 ft 267 kts 266°
2026-04-22 10:44 33.91761 -118.65391 8980 ft 270 kts 266°
2026-04-22 10:44 33.91756 -118.67662 9828 ft 272 kts 266°
2026-04-22 10:44 33.91749 -118.69981 10343 ft 287 kts 266°
2026-04-22 10:45 33.91735 -118.72475 10619 ft 307 kts 266°
2026-04-22 10:45 33.91722 -118.75077 11223 ft 313 kts 266°
2026-04-22 10:45 33.91712 -118.77709 11938 ft 316 kts 265°
2026-04-22 10:45 33.91702 -118.80363 12681 ft 318 kts 265°
2026-04-22 10:46 33.91692 -118.83033 13430 ft 320 kts 265°
2026-04-22 10:46 33.91715 -118.85722 14150 ft 323 kts 266°
2026-04-22 10:46 33.91787 -118.88432 14774 ft 326 kts 268°
2026-04-22 10:46 33.91882 -118.91173 15393 ft 329 kts 268°
2026-04-22 10:47 33.91982 -118.93935 16006 ft 332 kts 268°
2026-04-22 10:47 33.92078 -118.96719 16609 ft 334 kts 268°
2026-04-22 10:47 33.92216 -118.99533 17208 ft 340 kts 273°
2026-04-22 10:47 33.92802 -119.02333 17798 ft 351 kts 285°
2026-04-22 10:48 33.93937 -119.04987 18404 ft 362 kts 296°
2026-04-22 10:48 33.95283 -119.07566 18946 ft 365 kts 296°
2026-04-22 10:48 33.96615 -119.10128 19494 ft 368 kts 296°
2026-04-22 10:48 33.97972 -119.12749 20068 ft 370 kts 295°
2026-04-22 10:49 33.99334 -119.15388 20645 ft 372 kts 295°
2026-04-22 10:49 34.00859 -119.17948 21198 ft 381 kts 304°
2026-04-22 10:49 34.02801 -119.20184 21736 ft 392 kts 315°
2026-04-22 10:49 34.05032 -119.22127 22284 ft 397 kts 318°
2026-04-22 10:50 34.07292 -119.24060 22826 ft 399 kts 318°
2026-04-22 10:50 34.09571 -119.26008 23366 ft 402 kts 318°
2026-04-22 10:50 34.11859 -119.27970 23864 ft 405 kts 317°
2026-04-22 10:50 34.14162 -119.29950 24305 ft 407 kts 317°
2026-04-22 10:51 34.16472 -119.31937 24746 ft 409 kts 317°
2026-04-22 10:51 34.18794 -119.33938 25174 ft 411 kts 317°
2026-04-22 10:51 34.21129 -119.35951 25594 ft 413 kts 317°
2026-04-22 10:51 34.23475 -119.37977 26016 ft 415 kts 317°
2026-04-22 10:52 34.25830 -119.40012 26431 ft 417 kts 317°
2026-04-22 10:52 34.28198 -119.42060 26835 ft 419 kts 317°
2026-04-22 10:52 34.30546 -119.44093 27219 ft 421 kts 317°
2026-04-22 10:52 34.32931 -119.46163 27602 ft 423 kts 317°
2026-04-22 10:53 34.35330 -119.48243 27987 ft 425 kts 317°
2026-04-22 10:53 34.37742 -119.50332 28372 ft 427 kts 317°
2026-04-22 10:53 34.40165 -119.52439 28745 ft 429 kts 316°
2026-04-22 10:53 34.42390 -119.54799 29123 ft 423 kts 308°
2026-04-22 10:54 34.44459 -119.57344 29501 ft 425 kts 308°
2026-04-22 10:54 34.46540 -119.59906 29891 ft 427 kts 308°
2026-04-22 10:54 34.48633 -119.62481 30259 ft 430 kts 308°
2026-04-22 10:54 34.50736 -119.65069 30553 ft 432 kts 308°
2026-04-22 10:55 34.52847 -119.67675 30864 ft 434 kts 308°
2026-04-22 10:55 34.54965 -119.70290 31157 ft 436 kts 308°
2026-04-22 10:55 34.57101 -119.72928 31440 ft 439 kts 308°
2026-04-22 10:55 34.59241 -119.75567 31814 ft 439 kts 308°
2026-04-22 10:56 34.61385 -119.78203 32221 ft 438 kts 307°
2026-04-22 10:56 34.63496 -119.80806 32578 ft 438 kts 307°
2026-04-22 10:56 34.65631 -119.83448 32989 ft 438 kts 307°
2026-04-22 10:56 34.67762 -119.86092 33396 ft 438 kts 307°
2026-04-22 10:57 34.69897 -119.88744 33813 ft 438 kts 307°
2026-04-22 10:57 34.72025 -119.91392 34131 ft 439 kts 307°
2026-04-22 10:57 34.74153 -119.94036 34191 ft 434 kts 307°
2026-04-22 10:58 34.78350 -119.99235 34195 ft 429 kts 306°
2026-04-22 10:58 34.82521 -120.04423 34201 ft 429 kts 306°
2026-04-22 10:59 34.86673 -120.09605 34207 ft 430 kts 306°
2026-04-22 10:59 34.90859 -120.14826 34214 ft 431 kts 306°
2026-04-22 11:00 34.95043 -120.20053 34222 ft 431 kts 306°
2026-04-22 11:00 34.99228 -120.25301 34217 ft 432 kts 306°
2026-04-22 11:01 35.03422 -120.30566 34222 ft 433 kts 306°
2026-04-22 11:01 35.07622 -120.35836 34223 ft 433 kts 306°
2026-04-22 11:02 35.11936 -120.41025 34233 ft 437 kts 308°
2026-04-22 11:02 35.16458 -120.46015 34387 ft 440 kts 310°
2026-04-22 11:02 35.18762 -120.48477 34526 ft 441 kts 310°
2026-04-22 11:03 35.21090 -120.50915 34686 ft 441 kts 311°
2026-04-22 11:03 35.23446 -120.53332 34875 ft 441 kts 312°
2026-04-22 11:03 35.25818 -120.55711 35094 ft 441 kts 313°
2026-04-22 11:03 35.28208 -120.58056 35330 ft 441 kts 313°
2026-04-22 11:04 35.30621 -120.60371 35588 ft 441 kts 314°
2026-04-22 11:04 35.33057 -120.62658 35877 ft 440 kts 314°
2026-04-22 11:04 35.35501 -120.64900 36177 ft 439 kts 315°
2026-04-22 11:04 35.37967 -120.67110 36488 ft 437 kts 316°
2026-04-22 11:05 35.40437 -120.69274 36847 ft 436 kts 317°
2026-04-22 11:05 35.42888 -120.71370 37225 ft 434 kts 317°
2026-04-22 11:05 35.45376 -120.73446 37644 ft 431 kts 318°
2026-04-22 11:05 35.47899 -120.75499 38090 ft 427 kts 319°
2026-04-22 11:06 35.50347 -120.77439 38538 ft 423 kts 319°
2026-04-22 11:06 35.52854 -120.79372 38982 ft 417 kts 320°
2026-04-22 11:06 35.55277 -120.81300 38960 ft 411 kts 311°
2026-04-22 11:06 35.57123 -120.83864 38194 ft 398 kts 296°
2026-04-22 11:07 35.58812 -120.86558 37377 ft 413 kts 305°
2026-04-22 11:07 35.60940 -120.89002 36664 ft 425 kts 312°
2026-04-22 11:07 35.63304 -120.91239 35996 ft 433 kts 315°
2026-04-22 11:07 35.65762 -120.93413 35342 ft 437 kts 315°
2026-04-22 11:08 35.68215 -120.95626 34699 ft 438 kts 314°
2026-04-22 11:08 35.70611 -120.97924 34353 ft 436 kts 312°
2026-04-22 11:08 35.72950 -121.00311 34191 ft 437 kts 310°
2026-04-22 11:09 35.77537 -121.05244 34227 ft 438 kts 309°
2026-04-22 11:09 35.82118 -121.10196 34153 ft 436 kts 310°
2026-04-22 11:09 35.84399 -121.12623 33889 ft 429 kts 310°
2026-04-22 11:10 35.86656 -121.15000 33624 ft 425 kts 310°
2026-04-22 11:10 35.88860 -121.17319 33362 ft 421 kts 310°
2026-04-22 11:10 35.91080 -121.19662 33111 ft 419 kts 309°
2026-04-22 11:10 35.93293 -121.22010 32852 ft 417 kts 309°
2026-04-22 11:11 35.95484 -121.24344 32597 ft 415 kts 309°
2026-04-22 11:11 35.97664 -121.26669 32346 ft 413 kts 309°
2026-04-22 11:11 35.99831 -121.28982 32100 ft 411 kts 309°
2026-04-22 11:11 36.01990 -121.31288 31855 ft 410 kts 309°
2026-04-22 11:12 36.04142 -121.33583 31611 ft 408 kts 309°
2026-04-22 11:12 36.06294 -121.35859 31372 ft 408 kts 311°
2026-04-22 11:12 36.08655 -121.37876 31129 ft 415 kts 318°
2026-04-22 11:12 36.11090 -121.39766 30889 ft 413 kts 318°
2026-04-22 11:13 36.13520 -121.41658 30666 ft 411 kts 317°
2026-04-22 11:13 36.15932 -121.43538 30294 ft 409 kts 317°
2026-04-22 11:13 36.18330 -121.45414 29836 ft 407 kts 317°
2026-04-22 11:13 36.20722 -121.47284 29425 ft 405 kts 317°
2026-04-22 11:14 36.23099 -121.49142 29006 ft 403 kts 317°
2026-04-22 11:14 36.25464 -121.50988 28612 ft 401 kts 317°
2026-04-22 11:14 36.27788 -121.52805 28213 ft 399 kts 317°
2026-04-22 11:14 36.30133 -121.54646 27787 ft 398 kts 317°
2026-04-22 11:15 36.32466 -121.56479 27355 ft 397 kts 317°
2026-04-22 11:15 36.34793 -121.58307 26930 ft 395 kts 317°
2026-04-22 11:15 36.37115 -121.60131 26486 ft 395 kts 317°
2026-04-22 11:15 36.39430 -121.61950 26040 ft 394 kts 317°
2026-04-22 11:16 36.41751 -121.63779 25556 ft 396 kts 317°
2026-04-22 11:16 36.44077 -121.65612 25093 ft 395 kts 316°
2026-04-22 11:16 36.46402 -121.67445 24588 ft 397 kts 317°
2026-04-22 11:16 36.48744 -121.69291 24091 ft 400 kts 317°
2026-04-22 11:17 36.51101 -121.71152 23546 ft 402 kts 317°
2026-04-22 11:17 36.53461 -121.73015 23023 ft 401 kts 317°
2026-04-22 11:17 36.55816 -121.74870 22511 ft 398 kts 317°
2026-04-22 11:17 36.58121 -121.76677 22019 ft 385 kts 318°
2026-04-22 11:18 36.60355 -121.78427 21508 ft 373 kts 317°
2026-04-22 11:18 36.62512 -121.80127 21040 ft 362 kts 317°
2026-04-22 11:18 36.64617 -121.81795 20570 ft 357 kts 317°
2026-04-22 11:18 36.66715 -121.83470 20092 ft 359 kts 318°
2026-04-22 11:19 36.68824 -121.85161 19602 ft 361 kts 319°
2026-04-22 11:19 36.70227 -121.86285 19279 ft 363 kts 319°
2026-04-22 11:19 36.73067 -121.88532 18617 ft 358 kts 323°
2026-04-22 11:19 36.74559 -121.89413 18256 ft 360 kts 333°
2026-04-22 11:20 36.76973 -121.90211 17743 ft 356 kts 342°
2026-04-22 11:20 36.79364 -121.90867 17208 ft 348 kts 342°
2026-04-22 11:20 36.81724 -121.91517 16615 ft 344 kts 342°
2026-04-22 11:20 36.84039 -121.92158 16160 ft 336 kts 342°
2026-04-22 11:21 36.86298 -121.92784 15720 ft 329 kts 342°
2026-04-22 11:21 36.88504 -121.93398 15290 ft 321 kts 342°
2026-04-22 11:21 36.90674 -121.94008 14875 ft 318 kts 342°
2026-04-22 11:21 36.92099 -121.94411 14598 ft 317 kts 342°
2026-04-22 11:22 36.94947 -121.95220 14050 ft 314 kts 341°
2026-04-22 11:22 36.97046 -121.95920 13634 ft 310 kts 338°
2026-04-22 11:22 36.99095 -121.96703 13253 ft 307 kts 337°
2026-04-22 11:22 37.01133 -121.97526 12872 ft 305 kts 336°
2026-04-22 11:23 37.03142 -121.98343 12496 ft 303 kts 337°
2026-04-22 11:23 37.05145 -121.99151 12122 ft 301 kts 337°
2026-04-22 11:23 37.07135 -121.99946 11759 ft 300 kts 337°
2026-04-22 11:23 37.09121 -122.00732 11395 ft 300 kts 337°
2026-04-22 11:24 37.11123 -122.01523 11016 ft 303 kts 338°
2026-04-22 11:24 37.13143 -122.02319 10638 ft 305 kts 338°
2026-04-22 11:24 37.15147 -122.03106 10272 ft 307 kts 338°
2026-04-22 11:24 37.17193 -122.03907 9869 ft 309 kts 338°
2026-04-22 11:25 37.19247 -122.04709 9487 ft 309 kts 338°
2026-04-22 11:25 37.21298 -122.05509 9147 ft 308 kts 338°
2026-04-22 11:25 37.23301 -122.06285 8821 ft 296 kts 338°
2026-04-22 11:25 37.25242 -122.07041 8405 ft 287 kts 338°
2026-04-22 11:26 37.27113 -122.07771 8055 ft 277 kts 338°
2026-04-22 11:26 37.28957 -122.08496 7709 ft 280 kts 338°
2026-04-22 11:26 37.30815 -122.09231 7337 ft 281 kts 338°
2026-04-22 11:26 37.32681 -122.09969 6966 ft 282 kts 337°
2026-04-22 11:27 37.34550 -122.10709 6598 ft 282 kts 338°
2026-04-22 11:27 37.36424 -122.11449 6209 ft 283 kts 338°
2026-04-22 11:27 37.38302 -122.12180 5833 ft 280 kts 340°
2026-04-22 11:27 37.40133 -122.12829 5517 ft 269 kts 340°
2026-04-22 11:28 37.41929 -122.13436 5197 ft 266 kts 341°
2026-04-22 11:28 37.43717 -122.14035 4875 ft 264 kts 341°
2026-04-22 11:28 37.45493 -122.14633 4552 ft 264 kts 341°
2026-04-22 11:28 37.47261 -122.15217 4231 ft 262 kts 342°
2026-04-22 11:29 37.49021 -122.15789 3919 ft 261 kts 342°
2026-04-22 11:29 37.50761 -122.16355 3609 ft 260 kts 342°
2026-04-22 11:29 37.52486 -122.16998 3295 ft 257 kts 332°
2026-04-22 11:29 37.53899 -122.18303 2977 ft 250 kts 307°
2026-04-22 11:30 37.54803 -122.20132 2677 ft 244 kts 294°
2026-04-22 11:30 37.55592 -122.22018 2382 ft 242 kts 295°
2026-04-22 11:30 37.56361 -122.23849 2247 ft 231 kts 295°
2026-04-22 11:30 37.57092 -122.25581 1996 ft 217 kts 295°
2026-04-22 11:31 37.57778 -122.27209 1709 ft 204 kts 295°
2026-04-22 11:31 37.58424 -122.28743 1467 ft 191 kts 295°
2026-04-22 11:31 37.59025 -122.30170 1144 ft 176 kts 295°
2026-04-22 11:31 37.59565 -122.31453 878 ft 160 kts 295°
2026-04-22 11:32 37.60064 -122.32642 655 ft 150 kts 296°
2026-04-22 11:32 37.60548 -122.33795 419 ft 148 kts 296°
2026-04-22 11:32 37.61027 -122.34939 209 ft 147 kts 296°
2026-04-22 11:32 37.61504 -122.36077 31 ft 146 kts 296°
2026-04-22 11:33 37.61923 -122.37072 16 ft 105 kts 298°
2026-04-22 11:33 37.62187 -122.37697 19 ft 58 kts 298°
2026-04-22 11:33 37.62343 -122.38073 21 ft 39 kts 295°
2026-04-22 11:33 37.62287 -122.38251 21 ft 22 kts 217°
2026-04-22 11:34 37.62173 -122.38303 20 ft 17 kts 196°
2026-04-22 11:34 37.62073 -122.38341 21 ft 5 kts 198°
2026-04-22 11:34 37.62027 -122.38361 21 ft 9 kts 200°
2026-04-22 11:34 37.61987 -122.38403 20 ft 4 kts 230°
2026-04-22 11:35 37.61980 -122.38413 20 ft 0 kts 230°